Regional Weather Roundup
Issued by NWS Sioux Falls, SD

Home | Current Version | Previous Version | Graphics & Text | Print | Product List | Glossary On
Versions: 1 2 3 4 5 6 7 8 9 10 11 12 13 14 15 16 17 18 19 20 21 22 23 24 25 26 27 28 29 30 31 32 33 34 35 36 37 38 39 40 41 42 43 44 45 46 47 48 49 50
000
ASUS43 KFSD 171302
RWRFSD

WEATHER ROUNDUP FOR SE SOUTH DAKOTA/SW MINNESOTA/NW IOWA
NATIONAL WEATHER SERVICE SIOUX FALLS SD
700 AM CST FRI NOV 17 2017

NOTE: "FAIR" INDICATES FEW OR NO CLOUDS BELOW 12,000 FEET WITH NO
SIGNIFICANT WEATHER AND OR OBSTRUCTIONS TO VISIBILITY.


SDZ038>040-050-052>070-171400-
SOUTHEAST SOUTH DAKOTA

CITY           SKY/WX    TMP DP  RH WIND       PRES   REMARKS
BROOKINGS      CLOUDY    35  30  82 SE6       29.58S
CHAMBERLAIN    CLOUDY    42  33  69 NW7       29.63R
HURON          CLOUDY    33  29  85 E3        29.57S
MADISON        FAIR      36  36 100 S9        29.57S
MITCHELL       CLOUDY    38  33  82 NW13      29.56S
SIOUX FALLS    CLOUDY    43  37  79 S12       29.58S
WINNER         FAIR      37  29  72 NW6       29.64S
YANKTON        CLOUDY    44  41  89 S6        29.58S
$$

MNZ071-072-080-081-089-090-097-098-171400-
SOUTHWEST MINNESOTA

CITY           SKY/WX    TMP DP  RH WIND       PRES   REMARKS
FAIRMONT       CLOUDY    38  32  79 S20G25    29.67R
JACKSON        CLOUDY    37  32  81 S23G29    29.63F
LUVERNE        CLOUDY    43  36  75 S14       29.60F
MARSHALL       CLOUDY    37  31  78 SE7       29.61S
MONTEVIDEO     CLOUDY    32  30  93 S6        29.63R WCI  26
PIPESTONE      CLOUDY    39  36  87 S13       29.58S
REDWOOD FALLS  CLOUDY    37  29  72 S13       29.64F
WINDOM           N/A     41  27  56 S13       29.64R
WORTHINGTON    CLOUDY    40  33  76 S18       29.60F
$$

IAZ001>003-012>014-020>022-031-032-NEZ013-014-SDZ071-171400-
NORTHWEST IOWA

CITY           SKY/WX    TMP DP  RH WIND       PRES   REMARKS
CHEROKEE       CLOUDY    47  39  76 S14G20    29.65F
DENISON        CLOUDY    48  41  76 S18G26    29.67F
ESTHERVILLE    CLOUDY    39  33  79 S21G29    29.65F
LE MARS        CLOUDY    48  39  71 S21       29.62S
ORANGE CITY    CLOUDY    48  45  87 S15G25    29.62S
SHELDON        CLOUDY    46  37  71 S16       29.61S
SIOUX CITY     CLOUDY    46  37  71 SE10      29.64S
SPENCER        CLOUDY    41  32  70 S15       29.65F
STORM LAKE     CLOUDY    45  36  70 S17G25    29.67S
$$

ABBREVIATIONS USED IN REMARKS
   TC - TEMPERATURE IN CELSIUS
  WCI - WIND CHILL INDEX
   HX - HEAT INDEX
  VSB - VISIBILITY





USA.gov is the U.S. government's official web portal to all federal, state and local government web resources and services.